QPF
0.00 0.00 0.00 0.00 0.00 0.00 0.00 0.00 0.00 0.00 0.00 0.00 0.00 0.00 0.00 0.00 0.00 0.00 0.00 0.00 0.00 0.00 0.00 0.00 0.00 0.00 0.00 0.00 0.00 0.00 0.00 0.00 0.00 0.00 0.00 0.00 0.00 0.00 0.00 0.00 0.00 0.00 0.00
0.00 0.00 0.00 0.00 0.00 0.00 0.00 0.00 0.00 0.00 0.00 0.00 0.00 0.00 0.00 0.00 0.00 0.00 0.00 0.00 0.00 0.00 0.00 0.00 0.00 0.00 0.00 0.00 0.00 0.00 0.00 0.00 0.00 0.00 0.00 0.00 0.00 0.00 0.00 0.00 0.00 0.00 0.00
0.00 0.00 0.00 0.00 0.00 0.00 0.00 0.00 0.00 0.00 0.00 0.00 0.00 0.00 0.00 0.00 0.00 0.00 0.00 0.00 0.00 0.00 0.00 0.00 0.00 0.00 0.00 0.00 0.00 0.00 0.00 0.00 0.00 0.00 0.00 0.00 0.00 0.00 0.00 0.00 0.00 0.00 0.00
0.00 0.00 0.00 0.00 0.00 0.00 0.00 0.00 0.00 0.00 0.00 0.00 0.00 0.00 0.00 0.00 0.00 0.00 0.00 0.00 0.00 0.00 0.00 0.00 0.00 0.00 0.00 0.00 0.00 0.00 0.00 0.00 0.00 0.00 0.00 0.00 0.00 0.00 0.00 0.00 0.00 0.00 0.00
0.00 0.00 0.00 0.00 0.00 0.00 0.00 0.00 0.00 0.00 0.00 0.00 0.00 0.00 0.00 0.00 0.00 0.00 0.00 0.00 0.00 0.00 0.00 0.00 0.00 0.00 0.00 0.00 0.00 0.00 0.00 0.00 0.00 0.00 0.00 0.00 0.00 0.00 0.00 0.00 0.00 0.00 0.00
0.00 0.00 0.00 0.00 0.00 0.00 0.00 0.00 0.00 0.00 0.00 0.00 0.00 0.00 0.00 0.00 0.00 0.00 0.00 0.00 0.00 0.00 0.00 0.00 0.00 0.00 0.00 0.00 0.00 0.00 0.00 0.00 0.00 0.00 0.00 0.00 0.00 0.00 0.00 0.00 0.00 0.00 0.00
0.00 0.00 0.00 0.00 0.00 0.00 0.00 0.00 0.00 0.00 0.00 0.00 0.00 0.00 0.00 0.00 0.00 0.00 0.00 0.00 0.00 0.00 0.00 0.00 0.00 0.00 0.00 0.00 0.00 0.00 0.00 0.00 0.00 0.00 0.00 0.00 0.00 0.00 0.00 0.00 0.00 0.00 0.00
0.00 0.00 0.00 0.00 0.00 0.00 0.00 0.00 0.00 0.00 0.00 0.00 0.00 0.00 0.00 0.00 0.00 0.00 0.00 0.00 0.00 0.00 0.00 0.00 0.00 0.00 0.00 0.00 0.00 0.00 0.00 0.00 0.00 0.00 0.00 0.00 0.00 0.00 0.00 0.00 0.00 0.00 0.00
0.00 0.00 0.00 0.00 0.00 0.00 0.00 0.00 0.00 0.00 0.00 0.00 0.00 0.00 0.00 0.00 0.00 0.00 0.00 0.00 0.00 0.00 0.00 0.00 0.00 0.00 0.00 0.00 0.00 0.00 0.00 0.00 0.00 0.00 0.00 0.00 0.00 0.00 0.00 0.00 0.00 0.00 0.00
0.00 0.00 0.00 0.00 0.00 0.00 0.00 0.00 0.00 0.00 0.00 0.00 0.00 0.00 0.00 0.00 0.00 0.00 0.00 0.00 0.00 0.00 0.00 0.00 0.00 0.00 0.00 0.00 0.00 0.00 0.00 0.00 0.00 0.00 0.00 0.00 0.00 0.00 0.00 0.00 0.00 0.00 0.00
0.00 0.00 0.00 0.00 0.00 0.00 0.00 0.00 0.00 0.00 0.00 0.00 0.00 0.00 0.00 0.00 0.00 0.00 0.00 0.00 0.00 0.00 0.00 0.00 0.00 0.00 0.00 0.00 0.00 0.00 0.00 0.00 0.00 0.00 0.00 0.00 0.00 0.00 0.00 0.00 0.00 0.00 0.00
0.00 0.00 0.00 0.00 0.00 0.00 0.00 0.00 0.00 0.00 0.00 0.00 0.00 0.00 0.00 0.00 0.00 0.00 0.00 0.00 0.00 0.00 0.00 0.00 0.00 0.00 0.00 0.00 0.00 0.00 0.00 0.00 0.00 0.00 0.00 0.00 0.00 0.00 0.00 0.00 0.00 0.00 0.00
0.00 0.00 0.00 0.00 0.00 0.00 0.00 0.00 0.00 0.00 0.00 0.00 0.00 0.00 0.00 0.00 0.00 0.00 0.00 0.00 0.00 0.00 0.00 0.00 0.00 0.00 0.00 0.00 0.00 0.00 0.00 0.00 0.00 0.00 0.00 0.00 0.00 0.00 0.00 0.00 0.00 0.00 0.00
0.00 0.00 0.00 0.00 0.00 0.00 0.00 0.00 0.00 0.00 0.00 0.00 0.00 0.00 0.00 0.00 0.00 0.00 0.00 0.00 0.00 0.00 0.00 0.00 0.00 0.00 0.00 0.00 0.00 0.00 0.00 0.00 0.00 0.00 0.00 0.00 0.00 0.00 0.00 0.00 0.00 0.00 0.00
0.00 0.00 0.00 0.00 0.00 0.00 0.00 0.00 0.00 0.00 0.00 0.00 0.00 0.00 0.00 0.00 0.00 0.00 0.00 0.00 0.00 0.00 0.00 0.00 0.00 0.00 0.00 0.00 0.00 0.00 0.00 0.00 0.00 0.00 0.00 0.00 0.00 0.00 0.00 0.00 0.00 0.00 0.00
0.00 0.00 0.00 0.00 0.00 0.00 0.00 0.00 0.00 0.00 0.00 0.00 0.00 0.00 0.00 0.00 0.00 0.00 0.00 0.00 0.00 0.00 0.01 0.00 0.00 0.00 0.00 0.00 0.00 0.00 0.00 0.00 0.00 0.00 0.00 0.00 0.00 0.00 0.00 0.00 0.00 0.00 0.00
0.00 0.00 0.00 0.00 0.00 0.00 0.00 0.00 0.00 0.00 0.00 0.00 0.00 0.00 0.00 0.00 0.00 0.00 0.00 0.00 0.00 0.00 0.01 0.00 0.00 0.00 0.00 0.00 0.00 0.00 0.00 0.00 0.00 0.00 0.00 0.00 0.00 0.00 0.00 0.00 0.00 0.00 0.00
0.02 0.00 0.00 0.00 0.00 0.00 0.00 0.00 0.00 0.00 0.00 0.00 0.00 0.00 0.00 0.00 0.00 0.00 0.00 0.00 0.01 0.01 0.01 0.00 0.00 0.00 0.00 0.00 0.00 0.00 0.00 0.00 0.00 0.00 0.00 0.00 0.00 0.00 0.00 0.00 0.01 0.02 0.02
0.09 0.07 0.03 0.02 0.02 0.02 0.03 0.03 0.02 0.02 0.01 0.00 0.00 0.01 0.01 0.01 0.00 0.02 0.02 0.01 0.01 0.02 0.03 0.02 0.02 0.01 0.00 0.00 0.00 0.00 0.00 0.00 0.00 0.00 0.00 0.00 0.00 0.00 0.01 0.01 0.01 0.01 0.01
0.07 0.11 0.11 0.11 0.10 0.09 0.06 0.05 0.05 0.05 0.05 0.06 0.07 0.04 0.03 0.03 0.01 0.01 0.01 0.01 0.02 0.02 0.01 0.00 0.01 0.01 0.01 0.00 0.00 0.00 0.00 0.00 0.01 0.00 0.00 0.00 0.00 0.01 0.01 0.01 0.01 0.01 0.03
0.05 0.06 0.08 0.10 0.10 0.07 0.05 0.05 0.06 0.06 0.05 0.05 0.04 0.03 0.02 0.04 0.03 0.02 0.01 0.00 0.00 0.00 0.01 0.01 0.02 0.03 0.03 0.03 0.03 0.02 0.01 0.01 0.00 0.00 0.00 0.00 0.01 0.01 0.01 0.00 0.01 0.05 0.08
0.09 0.08 0.07 0.05 0.04 0.06 0.11 0.14 0.11 0.07 0.10 0.12 0.13 0.09 0.06 0.09 0.09 0.08 0.04 0.07 0.07 0.05 0.05 0.05 0.02 0.01 0.02 0.03 0.04 0.05 0.06 0.03 0.02 0.00 0.00 0.00 0.00 0.00 0.00 0.00 0.00 0.01 0.02
0.03 0.03 0.03 0.02 0.01 0.01 0.04 0.02 0.02 0.02 0.03 0.03 0.04 0.07 0.09 0.09 0.10 0.05 0.07 0.10 0.08 0.09 0.07 0.03 0.01 0.00 0.01 0.02 0.02 0.02 0.04 0.04 0.02 0.00 0.00 0.00 0.00 0.00 0.00 0.00 0.00 0.03 0.03
0.00 0.01 0.01 0.01 0.01 0.02 0.04 0.01 0.01 0.01 0.01 0.01 0.02 0.02 0.02 0.01 0.01 0.00 0.00 0.00 0.00 0.00 0.01 0.01 0.00 0.00 0.00 0.01 0.02 0.02 0.01 0.00 0.00 0.00 0.00 0.00 0.00 0.00 0.00 0.00 0.00 0.00 0.00
0.01 0.01 0.01 0.00 0.01 0.01 0.02 0.01 0.00 0.00 0.00 0.00 0.00 0.00 0.00 0.00 0.00 0.00 0.00 0.00 0.00 0.00 0.00 0.00 0.00 0.00 0.00 0.00 0.00 0.00 0.00 0.00 0.00 0.00 0.00 0.00 0.00 0.00 0.00 0.00 0.00 0.00 0.00
0.00 0.00 0.00 0.00 0.00 0.00 0.01 0.00 0.00 0.00 0.00 0.00 0.00 0.00 0.00 0.00 0.00 0.00 0.00 0.00 0.00 0.00 0.00 0.00 0.00 0.00 0.00 0.00 0.00 0.00 0.00 0.00 0.00 0.00 0.00 0.00 0.00 0.00 0.00 0.00 0.00 0.00 0.00
MSLP
1021.79 1022.41 1023.02 1023.35 1023.64 1023.82 1024.13 1024.46 1024.82 1025.14 1025.43 1025.69 1025.84 1025.95 1026.22 1026.41 1026.46 1026.61 1026.68 1026.51 1026.55 1026.57 1026.62 1026.75 1026.79 1026.88 1026.90 1026.95 1027.03 1027.07 1027.02 1026.92 1026.83 1026.83 1026.74 1026.77 1026.63 1026.63 1026.50 1026.43 1026.29 1026.21 1026.11
1021.89 1022.51 1023.13 1023.65 1023.96 1024.15 1024.41 1024.65 1025.00 1025.32 1025.78 1025.94 1026.23 1026.30 1026.55 1026.67 1026.82 1026.84 1026.91 1026.90 1026.83 1026.86 1026.81 1026.83 1026.86 1026.95 1026.91 1026.95 1027.06 1027.14 1027.15 1027.11 1027.05 1026.92 1026.86 1026.79 1026.68 1026.69 1026.58 1026.47 1026.45 1026.38 1026.24
1021.97 1022.47 1023.15 1023.81 1024.12 1024.47 1024.58 1024.90 1025.34 1025.71 1026.05 1026.23 1026.59 1026.68 1026.83 1026.92 1026.88 1027.01 1027.20 1027.21 1027.20 1027.04 1026.99 1026.92 1026.96 1027.02 1026.99 1026.91 1027.02 1027.11 1027.16 1027.15 1027.11 1027.05 1026.94 1026.85 1026.85 1026.75 1026.62 1026.57 1026.52 1026.40 1026.31
1022.08 1022.43 1023.11 1023.62 1024.23 1024.57 1024.89 1025.18 1025.59 1026.19 1026.46 1026.59 1026.82 1026.98 1027.12 1027.24 1027.19 1027.13 1027.33 1027.42 1027.39 1027.32 1027.22 1027.03 1027.11 1027.13 1027.06 1026.92 1026.85 1026.86 1026.98 1027.06 1027.03 1026.97 1026.87 1026.76 1026.74 1026.69 1026.60 1026.54 1026.49 1026.37 1026.25
1022.07 1022.48 1022.97 1023.56 1023.89 1024.61 1025.01 1025.35 1026.02 1026.24 1026.78 1026.96 1027.17 1027.31 1027.32 1027.43 1027.40 1027.32 1027.41 1027.47 1027.51 1027.44 1027.39 1027.26 1027.16 1027.16 1027.18 1027.16 1026.98 1026.79 1026.69 1026.67 1026.76 1026.78 1026.69 1026.60 1026.57 1026.54 1026.45 1026.38 1026.32 1026.17 1026.07
1022.02 1022.50 1023.04 1023.48 1023.80 1024.50 1025.09 1025.32 1025.95 1026.52 1026.86 1027.13 1027.39 1027.45 1027.56 1027.50 1027.58 1027.55 1027.42 1027.37 1027.35 1027.33 1027.40 1027.37 1027.35 1027.27 1027.12 1027.04 1026.96 1026.79 1026.63 1026.54 1026.44 1026.44 1026.42 1026.36 1026.30 1026.24 1026.20 1026.22 1026.14 1025.97 1025.86
1022.02 1022.37 1023.10 1023.44 1024.00 1024.29 1024.92 1025.19 1025.94 1026.53 1027.00 1027.20 1027.69 1027.87 1027.49 1027.32 1027.40 1027.34 1027.29 1027.27 1027.23 1027.11 1027.24 1027.32 1027.29 1027.18 1027.08 1026.91 1026.79 1026.58 1026.38 1026.31 1026.25 1026.10 1026.00 1025.98 1025.96 1025.94 1025.89 1025.85 1025.82 1025.71 1025.56
1022.09 1022.14 1022.92 1023.40 1023.78 1024.33 1024.83 1025.30 1025.57 1026.46 1026.87 1027.06 1027.61 1028.19 1028.18 1027.60 1027.23 1027.02 1027.10 1027.05 1027.06 1027.03 1026.99 1026.96 1027.01 1026.88 1026.79 1026.74 1026.61 1026.47 1026.27 1026.00 1025.82 1025.69 1025.58 1025.45 1025.36 1025.31 1025.25 1025.20 1025.13 1025.07 1025.00
1021.85 1022.15 1022.62 1023.00 1023.56 1024.06 1024.59 1024.98 1025.33 1025.81 1026.59 1027.13 1027.23 1027.71 1028.42 1028.40 1027.97 1027.05 1026.85 1026.74 1026.76 1026.77 1026.59 1026.56 1026.51 1026.43 1026.29 1026.22 1026.13 1025.94 1025.82 1025.75 1025.55 1025.29 1025.07 1024.94 1024.80 1024.64 1024.55 1024.53 1024.53 1024.47 1024.41
1021.55 1021.95 1022.42 1022.72 1023.30 1023.71 1024.36 1024.64 1024.96 1025.47 1026.01 1026.80 1027.33 1027.43 1027.60 1027.92 1028.19 1028.01 1026.90 1026.50 1026.46 1026.39 1026.16 1025.99 1025.82 1025.63 1025.53 1025.44 1025.25 1025.15 1025.06 1025.08 1024.93 1024.69 1024.44 1024.26 1024.11 1024.01 1023.90 1023.79 1023.72 1023.67 1023.60
1021.15 1021.60 1021.99 1022.52 1023.06 1023.54 1023.79 1024.34 1024.80 1025.23 1025.66 1026.21 1026.63 1027.13 1027.54 1027.82 1027.90 1028.19 1027.79 1026.94 1026.45 1025.92 1025.62 1025.37 1025.08 1024.83 1024.57 1024.40 1024.33 1024.19 1023.95 1023.91 1023.90 1023.86 1023.73 1023.58 1023.39 1023.24 1023.14 1023.04 1022.92 1022.78 1022.69
1021.05 1021.35 1021.63 1022.09 1022.51 1023.03 1023.48 1023.94 1024.28 1024.82 1025.17 1025.47 1025.86 1026.35 1026.69 1026.97 1027.47 1027.64 1027.86 1027.15 1026.99 1025.81 1025.15 1024.75 1024.50 1024.13 1023.71 1023.67 1023.46 1023.26 1023.20 1023.18 1023.18 1023.13 1022.95 1022.80 1022.65 1022.56 1022.46 1022.30 1022.17 1022.10 1021.95
1020.71 1020.93 1021.31 1021.83 1022.13 1022.54 1022.98 1023.48 1023.90 1024.37 1024.76 1025.13 1025.30 1025.56 1025.87 1025.87 1026.06 1026.56 1026.76 1026.58 1026.57 1025.83 1025.23 1024.30 1023.62 1023.23 1022.95 1022.88 1022.76 1022.65 1022.62 1022.47 1022.35 1022.19 1022.07 1021.90 1021.74 1021.71 1021.68 1021.62 1021.54 1021.41 1021.26
1020.07 1020.35 1020.83 1021.16 1021.52 1022.00 1022.47 1022.97 1023.42 1023.77 1024.02 1024.37 1024.60 1024.72 1025.01 1025.04 1025.08 1025.30 1025.42 1025.67 1025.82 1025.74 1025.30 1024.41 1023.21 1022.87 1022.64 1022.70 1022.43 1022.39 1022.39 1022.14 1022.11 1021.90 1021.54 1021.15 1020.91 1020.83 1020.78 1020.73 1020.68 1020.61 1020.54
1019.51 1019.91 1020.29 1020.78 1021.15 1021.50 1021.91 1022.34 1022.87 1023.06 1023.40 1023.68 1023.83 1024.07 1024.33 1024.10 1024.18 1024.28 1024.66 1024.76 1025.19 1025.30 1024.73 1023.76 1023.51 1022.09 1022.02 1021.98 1021.69 1021.87 1021.82 1021.46 1021.32 1021.06 1020.84 1020.59 1020.39 1020.23 1020.12 1020.07 1019.99 1019.84 1019.68
1018.87 1019.42 1019.89 1020.22 1020.59 1020.99 1021.37 1021.75 1022.23 1022.41 1022.83 1022.91 1023.10 1023.32 1023.35 1023.39 1023.52 1023.64 1023.77 1023.93 1024.08 1024.19 1023.90 1022.57 1022.40 1021.95 1021.75 1021.51 1021.14 1021.19 1020.91 1020.80 1020.61 1020.43 1020.24 1020.14 1020.01 1019.87 1019.65 1019.38 1019.16 1018.95 1018.81
1018.35 1018.78 1019.20 1019.66 1020.02 1020.34 1020.58 1021.10 1021.43 1021.72 1022.08 1022.12 1022.27 1022.46 1022.53 1022.52 1022.68 1022.76 1022.85 1022.96 1023.10 1023.25 1022.95 1021.94 1021.45 1021.14 1021.25 1021.08 1020.73 1020.51 1020.21 1019.98 1019.83 1019.46 1019.27 1019.00 1018.68 1018.46 1018.31 1018.05 1017.81 1017.68 1017.64
1017.79 1018.15 1018.63 1019.10 1019.35 1019.64 1019.94 1020.26 1020.70 1021.04 1021.25 1021.38 1021.45 1021.79 1021.70 1021.78 1021.95 1022.11 1022.20 1022.26 1022.34 1022.14 1022.01 1021.24 1020.90 1020.56 1020.49 1020.24 1019.88 1019.87 1019.51 1019.18 1019.01 1018.58 1018.31 1018.12 1017.80 1017.50 1017.28 1017.34 1017.30 1017.01 1016.68
1017.23 1017.65 1018.15 1018.48 1018.78 1019.03 1019.41 1019.65 1020.02 1020.27 1020.50 1020.60 1020.71 1021.06 1021.19 1021.46 1021.49 1021.44 1021.47 1021.40 1021.27 1021.05 1020.90 1020.39 1019.96 1019.85 1019.52 1019.59 1019.11 1019.12 1018.90 1018.55 1018.33 1017.86 1017.63 1017.43 1017.21 1017.00 1016.81 1016.48 1016.30 1016.30 1016.16
1016.99 1017.36 1017.73 1018.09 1018.38 1018.73 1019.02 1019.29 1019.57 1019.83 1019.99 1020.23 1019.98 1020.47 1020.65 1020.80 1020.85 1020.79 1020.73 1020.69 1020.66 1020.40 1020.13 1019.74 1019.32 1019.17 1019.09 1018.78 1018.82 1018.83 1018.13 1017.98 1017.61 1017.32 1017.10 1016.74 1016.31 1016.21 1016.20 1015.88 1015.75 1015.37 1015.57
1017.14 1017.53 1017.86 1018.17 1018.44 1018.73 1018.99 1019.10 1019.35 1019.52 1019.81 1020.20 1020.39 1020.42 1020.59 1020.90 1021.41 1021.06 1021.13 1020.96 1020.92 1020.88 1020.51 1020.44 1019.99 1019.52 1019.33 1019.30 1019.39 1019.31 1018.79 1018.32 1017.62 1017.27 1016.78 1016.31 1015.89 1015.93 1015.75 1015.39 1015.11 1014.74 1014.81
1017.49 1017.78 1018.15 1018.45 1018.68 1019.08 1019.52 1019.40 1019.69 1019.66 1019.97 1019.91 1020.33 1020.82 1021.02 1021.28 1021.67 1021.31 1021.62 1020.97 1021.21 1021.24 1020.87 1020.66 1020.72 1020.04 1019.75 1020.19 1020.03 1019.91 1019.76 1018.97 1018.22 1017.14 1017.33 1016.56 1016.22 1015.70 1015.67 1015.45 1015.08 1014.53 1014.20
1017.78 1018.17 1018.31 1018.55 1018.87 1019.38 1019.56 1019.64 1019.86 1019.93 1019.57 1020.11 1020.53 1020.67 1021.01 1021.28 1021.44 1021.65 1021.39 1021.26 1021.54 1020.93 1021.37 1021.09 1021.00 1020.84 1020.89 1020.59 1020.60 1019.93 1019.70 1019.34 1018.87 1017.91 1017.87 1016.29 1016.24 1015.75 1015.23 1014.94 1014.61 1014.08 1013.75
1018.07 1018.36 1018.52 1018.84 1019.15 1019.60 1020.00 1019.86 1019.88 1020.11 1020.23 1020.63 1021.05 1021.14 1021.52 1021.73 1021.76 1021.78 1021.75 1021.51 1021.76 1021.45 1021.35 1021.28 1021.48 1021.25 1021.05 1020.96 1020.65 1020.24 1019.68 1019.23 1018.68 1018.15 1017.93 1016.58 1016.15 1015.62 1014.89 1014.57 1014.04 1013.51 1013.57
1018.41 1018.63 1018.72 1019.06 1019.46 1019.82 1020.18 1020.55 1020.37 1020.77 1020.74 1021.39 1021.68 1021.99 1022.07 1022.23 1022.05 1021.80 1021.89 1021.92 1021.86 1021.83 1021.70 1021.58 1021.46 1021.17 1020.90 1020.57 1020.32 1019.99 1019.69 1019.44 1018.55 1018.25 1017.73 1017.31 1016.43 1015.57 1014.71 1014.07 1013.77 1013.51 1013.43
1018.53 1018.87 1019.24 1019.58 1019.75 1020.17 1020.56 1020.81 1020.74 1021.00 1021.29 1021.68 1022.14 1022.40 1022.36 1022.25 1022.00 1021.89 1021.95 1022.12 1022.11 1022.03 1021.84 1021.68 1021.50 1021.20 1020.88 1020.59 1020.10 1020.03 1019.90 1019.70 1019.41 1018.31 1017.98 1017.85 1017.11 1016.63 1014.88 1013.97 1013.72 1013.52 1013.37
Thickness
5658 5653 5648 5646 5645 5646 5644 5644 5642 5641 5640 5639 5639 5639 5638 5636 5636 5634 5632 5630 5630 5629 5628 5625 5624 5623 5622 5620 5618 5616 5616 5615 5614 5612 5611 5609 5607 5605 5604 5603 5603 5602 5603
5654 5650 5645 5641 5640 5639 5639 5639 5637 5637 5635 5635 5634 5634 5633 5633 5631 5631 5629 5627 5626 5625 5624 5623 5622 5620 5620 5618 5616 5614 5612 5610 5609 5608 5606 5604 5603 5601 5601 5601 5601 5600 5600
5649 5648 5643 5638 5636 5634 5635 5633 5631 5631 5631 5630 5628 5629 5629 5629 5629 5627 5625 5624 5623 5623 5621 5621 5619 5617 5616 5615 5613 5611 5609 5606 5605 5603 5601 5600 5598 5599 5599 5599 5599 5598 5597
5643 5644 5640 5638 5632 5631 5629 5629 5628 5625 5625 5627 5626 5625 5624 5623 5624 5625 5622 5621 5621 5621 5620 5619 5617 5614 5613 5612 5611 5609 5606 5604 5601 5599 5598 5598 5598 5598 5598 5597 5597 5596 5594
5639 5638 5637 5634 5634 5629 5627 5624 5621 5622 5619 5620 5620 5619 5620 5618 5619 5619 5619 5618 5617 5617 5618 5617 5615 5613 5610 5608 5607 5606 5604 5602 5599 5597 5596 5597 5597 5597 5596 5596 5595 5593 5591
5636 5634 5632 5631 5631 5628 5625 5624 5619 5616 5616 5615 5615 5616 5615 5616 5615 5615 5616 5616 5616 5615 5613 5613 5612 5611 5609 5606 5604 5602 5600 5598 5597 5596 5596 5596 5596 5596 5595 5593 5591 5590 5588
5631 5631 5627 5627 5624 5626 5622 5623 5619 5614 5612 5612 5609 5608 5612 5614 5614 5615 5615 5615 5614 5614 5611 5609 5608 5608 5607 5604 5601 5600 5598 5596 5595 5595 5595 5595 5595 5594 5593 5591 5589 5587 5585
5626 5630 5624 5622 5622 5620 5618 5616 5617 5612 5610 5610 5606 5601 5603 5608 5611 5614 5613 5613 5612 5611 5609 5607 5605 5604 5603 5602 5600 5597 5596 5597 5597 5596 5596 5596 5595 5594 5593 5591 5589 5586 5584
5622 5622 5622 5622 5619 5617 5615 5614 5614 5613 5608 5605 5605 5602 5596 5597 5598 5609 5610 5610 5610 5609 5608 5606 5603 5601 5600 5599 5598 5598 5597 5595 5596 5596 5596 5595 5594 5594 5593 5590 5588 5585 5582
5620 5618 5617 5618 5616 5616 5613 5612 5612 5610 5608 5603 5600 5599 5598 5597 5597 5598 5605 5608 5607 5606 5606 5605 5603 5601 5600 5600 5600 5600 5600 5598 5597 5596 5596 5595 5594 5592 5591 5589 5587 5584 5581
5618 5617 5616 5614 5612 5612 5612 5610 5607 5606 5604 5602 5600 5595 5593 5591 5590 5590 5591 5596 5601 5604 5604 5604 5604 5603 5603 5603 5603 5604 5604 5602 5599 5598 5596 5595 5594 5592 5590 5588 5585 5582 5579
5614 5614 5614 5612 5611 5609 5608 5606 5606 5604 5602 5602 5599 5595 5594 5592 5587 5586 5583 5588 5589 5596 5601 5602 5603 5603 5605 5604 5605 5604 5603 5602 5599 5596 5595 5593 5592 5589 5587 5584 5582 5578 5575
5609 5609 5610 5609 5609 5607 5606 5604 5603 5600 5598 5597 5597 5595 5593 5594 5593 5587 5585 5587 5587 5591 5594 5597 5601 5603 5604 5604 5604 5603 5602 5600 5599 5597 5594 5592 5590 5586 5583 5580 5576 5573 5570
5607 5606 5606 5606 5606 5604 5603 5600 5599 5598 5598 5596 5595 5595 5593 5593 5593 5590 5588 5586 5586 5583 5586 5591 5596 5596 5597 5597 5598 5596 5595 5594 5592 5591 5590 5589 5587 5584 5580 5576 5573 5569 5565
5605 5603 5603 5601 5600 5600 5598 5597 5595 5595 5594 5594 5593 5592 5591 5593 5592 5591 5587 5585 5581 5582 5587 5591 5588 5594 5591 5591 5592 5589 5588 5589 5588 5586 5585 5584 5581 5578 5575 5571 5568 5564 5561
5601 5600 5600 5598 5597 5595 5594 5593 5591 5591 5590 5592 5591 5590 5590 5589 5588 5586 5584 5582 5579 5577 5581 5591 5589 5589 5587 5585 5584 5583 5583 5582 5582 5581 5579 5576 5573 5571 5569 5567 5564 5561 5556
5600 5598 5597 5595 5594 5593 5592 5591 5591 5589 5588 5589 5589 5587 5586 5587 5585 5584 5581 5580 5577 5573 5574 5584 5588 5588 5584 5581 5580 5578 5577 5577 5576 5575 5574 5573 5572 5570 5567 5564 5562 5558 5553
5598 5596 5595 5593 5593 5593 5591 5590 5587 5586 5585 5585 5585 5583 5584 5582 5581 5579 5576 5574 5571 5571 5570 5576 5579 5580 5578 5579 5578 5576 5574 5573 5571 5570 5569 5567 5567 5565 5562 5556 5552 5549 5546
5595 5592 5590 5590 5589 5589 5587 5586 5584 5583 5582 5582 5582 5578 5577 5575 5574 5574 5572 5571 5570 5569 5567 5570 5572 5571 5573 5570 5572 5570 5570 5569 5567 5565 5563 5561 5558 5555 5552 5551 5547 5541 5537
5589 5587 5586 5584 5582 5581 5580 5580 5578 5577 5576 5575 5578 5573 5571 5569 5569 5568 5567 5565 5562 5562 5563 5565 5566 5564 5562 5563 5559 5559 5564 5561 5560 5558 5557 5554 5553 5549 5543 5539 5536 5534 5528
5578 5577 5576 5574 5572 5570 5569 5569 5568 5567 5566 5563 5561 5560 5558 5555 5552 5553 5550 5548 5545 5543 5544 5544 5547 5548 5546 5543 5540 5537 5538 5542 5548 5545 5548 5544 5545 5538 5531 5527 5525 5524 5518
5566 5565 5564 5562 5561 5558 5555 5556 5554 5554 5552 5552 5548 5544 5542 5541 5537 5530 5528 5534 5529 5526 5528 5526 5521 5527 5528 5521 5518 5515 5512 5516 5521 5528 5524 5530 5525 5528 5519 5513 5510 5509 5508
5552 5552 5552 5550 5548 5544 5545 5545 5542 5541 5545 5541 5535 5533 5528 5525 5524 5519 5518 5516 5512 5515 5509 5509 5508 5506 5502 5501 5498 5500 5498 5497 5497 5501 5496 5514 5507 5508 5502 5500 5496 5495 5493
5538 5537 5537 5536 5535 5532 5530 5532 5531 5527 5525 5522 5517 5515 5511 5508 5507 5504 5502 5502 5497 5497 5495 5492 5488 5486 5484 5481 5479 5479 5481 5481 5482 5480 5475 5490 5487 5489 5490 5485 5480 5479 5473
5523 5523 5524 5523 5520 5518 5516 5513 5513 5509 5509 5502 5499 5496 5494 5490 5490 5490 5486 5484 5481 5478 5476 5474 5470 5468 5466 5465 5463 5463 5461 5460 5465 5463 5460 5459 5464 5469 5475 5475 5469 5462 5457
5509 5508 5506 5504 5504 5500 5499 5496 5495 5492 5489 5485 5481 5478 5477 5475 5474 5473 5470 5466 5462 5460 5458 5455 5453 5451 5449 5448 5445 5442 5439 5437 5436 5444 5439 5435 5439 5436 5454 5457 5453 5448 5444